| time (UTC) | temp F | wind direction | speed MPH | gust MPH | rain 1hr in | rain 24hr in | rain mn in | humidity % | barometer mb |
| 20260503230522 | 64 | 264 | 7.0 | 13.0 | 0.00 | 0.00 | 0.00 | 36 | 1018.0 |
| 20260503225524 | 64 | 256 | 7.0 | 10.0 | 0.00 | 0.00 | 0.00 | 36 | 1018.0 |
| 20260503224526 | 65 | 230 | 6.0 | 8.0 | 0.00 | 0.00 | 0.00 | 35 | 1018.0 |
| 20260503223527 | 65 | 253 | 7.0 | 10.0 | 0.00 | 0.00 | 0.00 | 35 | 1018.0 |
| 20260503222529 | 66 | 267 | 6.0 | 9.0 | 0.00 | 0.00 | 0.00 | 34 | 1018.1 |
| 20260503221625 | 65 | 281 | 6.0 | 10.0 | 0.00 | 0.00 | 0.00 | 35 | 1018.2 |
| 20260503220515 | 65 | 278 | 4.0 | 7.0 | 0.00 | 0.00 | 0.00 | 36 | 1018.2 |
| 20260503215516 | 66 | 265 | 7.0 | 11.0 | 0.00 | 0.00 | 0.00 | 35 | 1018.3 |
| 20260503213520 | 65 | 259 | 6.0 | 8.0 | 0.00 | 0.00 | 0.00 | 35 | 1018.2 |
| 20260503212522 | 65 | 265 | 7.0 | 8.0 | 0.00 | 0.00 | 0.00 | 35 | 1018.3 |
| 20260503211524 | 65 | 264 | 7.0 | 10.0 | 0.00 | 0.00 | 0.00 | 35 | 1018.3 |
| 20260503210525 | 66 | 261 | 7.0 | 12.0 | 0.00 | 0.00 | 0.00 | 34 | 1018.3 |
| 20260503205527 | 66 | 240 | 6.0 | 10.0 | 0.00 | 0.00 | 0.00 | 35 | 1018.2 |
| 20260503204528 | 66 | 285 | 6.0 | 9.0 | 0.00 | 0.00 | 0.00 | 34 | 1018.3 |
| 20260503203529 | 66 | 276 | 9.0 | 16.0 | 0.00 | 0.00 | 0.00 | 35 | 1018.3 |
| 20260503202531 | 66 | 278 | 6.0 | 10.0 | 0.00 | 0.00 | 0.00 | 35 | 1018.5 |
| 20260503201532 | 65 | 237 | 5.0 | 7.0 | 0.00 | 0.00 | 0.00 | 36 | 1018.5 |
| 20260503200517 | 65 | 259 | 7.0 | 9.0 | 0.00 | 0.00 | 0.00 | 35 | 1018.6 |
| 20260503195518 | 66 | 257 | 9.0 | 16.0 | 0.00 | 0.00 | 0.00 | 35 | 1018.8 |
| 20260503194520 | 65 | 292 | 6.0 | 9.0 | 0.00 | 0.00 | 0.00 | 36 | 1019.0 |
| 20260503193516 | 65 | 260 | 9.0 | 13.0 | 0.00 | 0.00 | 0.00 | 36 | 1019.0 |
| 20260503192524 | 64 | 357 | 5.0 | 7.0 | 0.00 | 0.00 | 0.00 | 35 | 1019.3 |
| 20260503190527 | 64 | 228 | 6.0 | 9.0 | 0.00 | 0.00 | 0.00 | 36 | 1019.5 |
| 20260503185529 | 63 | 281 | 7.0 | 12.0 | 0.00 | 0.00 | 0.00 | 37 | 1019.7 |
| 20260503184531 | 64 | 333 | 5.0 | 7.0 | 0.00 | 0.00 | 0.00 | 38 | 1019.8 |
| 20260503183532 | 63 | 235 | 6.0 | 9.0 | 0.00 | 0.00 | 0.00 | 38 | 1019.9 |
| 20260503182516 | 63 | 268 | 7.0 | 10.0 | 0.00 | 0.00 | 0.00 | 36 | 1020.0 |
| 20260503181518 | 63 | 232 | 8.0 | 12.0 | 0.00 | 0.00 | 0.00 | 37 | 1020.0 |
| 20260503180519 | 63 | 245 | 6.0 | 15.0 | 0.00 | 0.00 | 0.00 | 37 | 1020.1 |
| 20260503175521 | 62 | 236 | 5.0 | 10.0 | 0.00 | 0.00 | 0.00 | 38 | 1020.3 |
| 20260503174522 | 62 | 257 | 8.0 | 12.0 | 0.00 | 0.00 | 0.00 | 38 | 1020.3 |
| 20260503173524 | 61 | 245 | 7.0 | 12.0 | 0.00 | 0.00 | 0.00 | 40 | 1020.4 |
| 20260503172520 | 61 | 265 | 8.0 | 11.0 | 0.00 | 0.00 | 0.00 | 40 | 1020.5 |
| 20260503171615 | 61 | 266 | 7.0 | 14.0 | 0.00 | 0.00 | 0.00 | 40 | 1020.5 |
| 20260503170528 | 61 | 281 | 11.0 | 18.0 | 0.00 | 0.00 | 0.00 | 40 | 1020.6 |
| 20260503150517 | 54 | 276 | 7.0 | 11.0 | 0.00 | 0.00 | 0.00 | 50 | 1021.7 |
| 20260503130524 | 49 | 263 | 5.0 | 8.0 | 0.00 | 0.00 | 0.00 | 62 | 1021.9 |
| 20260503081519 | 43 | 238 | 4.0 | 7.0 | 0.00 | 0.00 | 0.00 | 73 | 1019.6 |
| 20260503080515 | 45 | 265 | 5.0 | 7.0 | 0.00 | 0.00 | 0.00 | 72 | 1019.5 |
| 20260503072515 | 43 | 255 | 4.0 | 6.0 | 0.00 | 0.00 | 0.00 | 75 | 1019.2 |
| 20260503071517 | 42 | 263 | 5.0 | 7.0 | 0.00 | 0.00 | 0.00 | 76 | 1019.1 |
| 20260503070518 | 42 | 263 | 4.0 | 7.0 | 0.00 | 0.00 | 0.00 | 77 | 1019.0 |
| 20260503054531 | 43 | 275 | 5.0 | 9.0 | 0.00 | 0.00 | 0.00 | 73 | 1019.0 |
| 20260503053533 | 44 | 260 | 5.0 | 8.0 | 0.00 | 0.00 | 0.00 | 72 | 1019.0 |
| 20260503052516 | 44 | 270 | 4.0 | 7.0 | 0.00 | 0.00 | 0.00 | 71 | 1019.0 |
| 20260503051516 | 44 | 271 | 4.0 | 8.0 | 0.00 | 0.00 | 0.00 | 71 | 1019.0 |
| 20260503050518 | 45 | 264 | 7.0 | 11.0 | 0.00 | 0.00 | 0.00 | 71 | 1019.0 |
| 20260503045519 | 44 | 296 | 8.0 | 10.0 | 0.00 | 0.00 | 0.00 | 71 | 1019.0 |
| 20260503044521 | 44 | 273 | 5.0 | 11.0 | 0.00 | 0.00 | 0.00 | 70 | 1019.0 |
| 20260503043523 | 44 | 290 | 4.0 | 6.0 | 0.00 | 0.00 | 0.00 | 70 | 1019.0 |
| 20260503042525 | 44 | 265 | 4.0 | 6.0 | 0.00 | 0.00 | 0.00 | 70 | 1019.0 |
| 20260503041526 | 44 | 307 | 3.0 | 7.0 | 0.00 | 0.00 | 0.00 | 69 | 1019.0 |
| 20260503040528 | 44 | 269 | 4.0 | 6.0 | 0.00 | 0.00 | 0.00 | 69 | 1019.0 |
| 20260503035523 | 44 | 271 | 6.0 | 9.0 | 0.00 | 0.00 | 0.00 | 70 | 1019.0 |
| 20260503034519 | 44 | 314 | 3.0 | 6.0 | 0.00 | 0.00 | 0.00 | 70 | 1019.0 |
| 20260503033532 | 44 | 282 | 3.0 | 4.0 | 0.00 | 0.00 | 0.00 | 70 | 1019.0 |
| 20260503032516 | 44 | 292 | 2.0 | 3.0 | 0.00 | 0.00 | 0.00 | 69 | 1019.0 |
| 20260503031518 | 45 | 0.0 | 0.0 | 0.00 | 0.00 | 0.00 | 68 | 1019.0 | |
| 20260503030520 | 46 | 60 | 3.0 | 4.0 | 0.00 | 0.00 | 0.00 | 67 | 1019.0 |
| 20260503025522 | 46 | 338 | 3.0 | 5.0 | 0.00 | 0.00 | 0.00 | 66 | 1019.0 |
| 20260503024524 | 47 | 339 | 4.0 | 6.0 | 0.00 | 0.00 | 0.00 | 66 | 1019.0 |
| 20260503023526 | 47 | 337 | 4.0 | 5.0 | 0.00 | 0.00 | 0.00 | 65 | 1019.2 |
| 20260503021610 | 48 | 298 | 4.0 | 9.0 | 0.00 | 0.00 | 0.00 | 62 | 1019.0 |
| 20260503020612 | 49 | 286 | 5.0 | 9.0 | 0.00 | 0.00 | 0.00 | 63 | 1019.0 |
| 20260503015616 | 48 | 282 | 4.0 | 6.0 | 0.00 | 0.00 | 0.00 | 63 | 1018.9 |
| 20260503014518 | 49 | 309 | 3.0 | 4.0 | 0.00 | 0.00 | 0.00 | 62 | 1018.5 |
| 20260503013519 | 49 | 310 | 3.0 | 4.0 | 0.00 | 0.00 | 0.00 | 60 | 1018.3 |
| 20260503012521 | 50 | 327 | 4.0 | 5.0 | 0.00 | 0.00 | 0.00 | 60 | 1018.2 |
| 20260503011516 | 50 | 303 | 3.0 | 5.0 | 0.00 | 0.00 | 0.00 | 59 | 1018.1 |
| 20260503010524 | 51 | 287 | 5.0 | 9.0 | 0.00 | 0.00 | 0.00 | 58 | 1018.0 |
| 20260503004526 | 51 | 294 | 3.0 | 6.0 | 0.00 | 0.00 | 0.00 | 57 | 1017.6 |
| 20260503003528 | 52 | 275 | 5.0 | 8.0 | 0.00 | 0.00 | 0.00 | 56 | 1017.3 |
| 20260503002529 | 52 | 298 | 4.0 | 6.0 | 0.00 | 0.00 | 0.00 | 55 | 1017.3 |
| 20260503001531 | 52 | 300 | 5.0 | 9.0 | 0.00 | 0.00 | 0.00 | 55 | 1017.2 |
| 20260503000515 | 53 | 304 | 5.0 | 8.0 | 0.00 | 0.00 | 0.00 | 54 | 1017.0 |
| 20260502235517 | 53 | 299 | 5.0 | 8.0 | 0.00 | 0.00 | 0.00 | 53 | 1017.0 |
| 20260502233521 | 54 | 330 | 6.0 | 11.0 | 0.00 | 0.00 | 0.00 | 51 | 1016.6 |
| 20260502232522 | 55 | 272 | 4.0 | 7.0 | 0.00 | 0.00 | 0.00 | 50 | 1016.6 |
| 20260502231524 | 55 | 310 | 4.0 | 6.0 | 0.00 | 0.00 | 0.00 | 50 | 1016.5 |
| 20260502230620 | 55 | 288 | 7.0 | 11.0 | 0.00 | 0.00 | 0.00 | 49 | 1016.5 |